Regional Weather Roundup
Issued by NWS

Home | Current Version | Previous Version | Text Only | Print | Product List | Glossary On
Versions: 1 2 3 4 5 6 7 8 9 10 11 12 13 14 15 16 17 18 19 20 21 22 23 24 25 26 27 28 29 30 31 32 33 34 35 36 37 38 39 40 41 42 43 44 45 46 47 48 49 50
000
ASUS43 KLMK 240210
RWRKY
KENTUCKY REGIONAL WEATHER ROUNDUP
NATIONAL WEATHER SERVICE LOUISVILLE KY
1000 PM EDT TUE SEP 23 2014

NOTE "FAIR" INDICATES FEW OR NO CLOUDS BELOW 12,000 FEET
WITH NO SIGNIFICANT WEATHER AND/OR OBSTRUCTIONS TO VISIBILITY.

KYZ001>023-026-027-061>063-070>075-240300-
WESTERN AND SOUTH CENTRAL KENTUCKY

CITY           SKY/WX    TMP DP  RH WIND       PRES   REMARKS
PADUCAH        CLEAR     60  50  69 CALM      30.21R
HENDERSON      CLEAR     55  46  71 CALM      30.25R
OWENSBORO      CLEAR     64  50  60 CALM      30.26R
HOPKINSVILLE   CLEAR     65  45  49 E6        30.23R
BOWLING GREEN  CLEAR     60  48  64 CALM      30.24R
GLASGOW        CLEAR     55  48  77 CALM      30.25R
$$

KYZ024-025-028>034-038-045-046-053-240300-
NORTH CENTRAL KENTUCKY

CITY           SKY/WX    TMP DP  RH WIND       PRES   REMARKS
LOUISVILLE/SDF CLEAR     64  47  53 E5        30.27R
LOUISVILLE/LOU CLEAR     64  47  53 NE3       30.28R
FORT KNOX      CLEAR     59  48  67 NE6       30.26R
$$

KYZ035>037-039>044-047>052-055>060-089>105-240300-
NORTHEAST KENTUCKY

CITY           SKY/WX    TMP DP  RH WIND       PRES   REMARKS
LEXINGTON      CLEAR     60  46  59 E6        30.29R
COVINGTON      CLEAR     61  44  53 CALM      30.30R
FRANKFORT      CLEAR     54  47  77 CALM      30.28R
$$

KYZ054-064>069-076>088-106>120-240300-
SOUTHEAST KENTUCKY

CITY           SKY/WX    TMP DP  RH WIND       PRES   REMARKS
JACKSON        CLEAR     58  47  66 VRB3      30.29R
LONDON         CLEAR     58  50  75 CALM      30.28R
SOMERSET       CLEAR     55  50  82 CALM      30.28R
MIDDLESBORO    CLEAR     57  54  89 CALM      30.28R
MONTICELLO     CLEAR     51  49  93 CALM      30.27S
$$



USA.gov is the U.S. government's official web portal to all federal, state and local government web resources and services.